星链-35131(STARLINK-35131)

导读

STARLINK-35131是美国SpaceX星链互联网卫星星座的成员,于2025年10月19日发射升空,星链计划旨在通过近地轨道卫星群为全球提供高速低延迟宽带互联网服务,该卫星入轨后将参与星座组网,补充星座容量,进一步提升全球尤其是偏远地区的互联网覆盖能力,助力星链服务的持续扩展。

Basic Information
目录编号:
66075
目录名称:
STARLINK-35131
国际标识:
2025-235T
轨道中心:
EARTH
卫星名称:
星链-35131
卫星全名:
星链-35131(STARLINK-35131)
卫星状态:
在轨 (已飞行320 天)
发射日期:
2025-10-19 UTC
国别 :
美国 (US)
星等 :
--
Orbit Information
数据来源 国际轨道数据
星历时间: 2026-09-02T08:51:29+0800
2天前
查看轨道信息
半长轴: 6840.879km
偏心率: 0.0001204
轨道倾角: 53.157°
近地点辐角 84.428°
升交点赤经 143.834°
平近点角 275.686°
近地点: 461.918km
远地点: 463.566km
周期: 93.849分钟
每日圈数: 15.34387
Detailed Information
固有亮度:
5
最大亮度:
2.5
卫星平台:
Starlink V1.0
覆盖范围:
全球
运营商:
太空探索技术公司
运营商所在国:
美国
制造商(研发单位):
太空探索技术公司
制造商所在国:
美国
使用方式:
暂无
Satellite Introduction
Starlink 计划是 SpaceX 推出的全球卫星互联网项目,通过发射低轨道卫星,为全球尤其是偏远地区提供高速、低延迟的互联网服务。自 2019 年起,Starlink 已部署数千颗卫星,旨在缩小全球数字鸿沟,推动互联网普及。该项目还为军事、航空等行业提供通信支持,带来广泛经济效益。
2D Orbit Map
3D Orbit Map
Orbit Altitude Analysis Chart
Orbit Inclination Analysis Chart
Orbit Comprehensive Analysis Chart
View Comprehensive Chart
Conjunction Data List
Event ID Objects TCA Miss Dist (km) Collision Risk Probability Collision Risk Index (CRI) Action
CDM_260904-234205-850206-607522
OBJECT A (58502)
2026-09-04T
23:42:16+0000
1.497 km
极远距离
6.474731E-6 低风险 0.51
CDM_260905-064305-114606-607521
2026-09-05T
06:43:43+0000
1.464 km
极远距离
4.449176E-6 低风险 0.48
CDM_260905-050905-114606-607521
2026-09-05T
05:09:56+0000
1.798 km
极远距离
2.39644E-6 低风险 0.43
CDM_260904-132106-454006-607522
ARCSTONE (64540)
2026-09-04T
13:21:27+0000
2.716 km
极远距离
1.445877E-6 低风险 0.38
CDM_260904-030505-226306-607521
2026-09-04T
03:05:43+0000
2.905 km
极远距离
1.115094E-6 低风险 0.36
CDM_260904-074805-318006-607521
2026-09-04T
07:48:25+0000
2.961 km
极远距离
1.048687E-6 低风险 0.35